DMSP 5D-2 F11 DEB, 28304

Orbit data source: Space-Track

DMSP 5D-2 F11 DEB, 28304 is space debris in SSO originally from a launch on Thu, 28 Nov 1991 UTC launched from the Air Force Western Test Range (AFWTR). Debris objects in space refer to the collection of defunct objects orbiting the Earth. Examples of debris include non-operational satellites, rocket bodies, and fragments generated from explosions, collisions, or faulty payload assembly.

Loading next visibility...
Identifier
28304, 1991-082R
Orbit
SSO
Country
Flag of USUS
Related business
Manufacturer
Unknown
Mission
Spacecraft
Bus & Motor
Unknown
Mass
Unknown
Launch date (UTC)
1991-11-28 (35 years ago)
Launch vehicle
Unknown
Launch site
Air Force Western Test Range (AFWTR)
Object type
Payload
Rocket body
Debris
Shape & HBR
Unknown shape, 0.2 m
Radar Cross Section
Medium (>0.1 m² and <1 m²)

Expand to show TLE details & history
Last TLE update: 14 hours ago

TLE from 14 hours ago
0 DMSP 5D-2 F11 DEB
1 28304U 91082R   26264.04656431  .00000050  00000-0  46224-4 0  9993
2 28304  98.6873 289.6921 0012809  15.3590  12.5351 14.17058182158750
Epoch: 2026-09-21T01:07Z
TLE epoch observation values (Epoch: 2026-09-21T01:07:03.156Z)
Latitude
27.61969°
Longitude
-91.5642°
Altitude
829.677 km
Speed
7.445 km/s
True Right ascension
19h 00m 31s
True Declination
27° 28' 48"
Sunlit
Object was in daylight at epoch
Visualization orbit readout
Latitude
Unknown
Longitude
Unknown
Altitude
Unknown
Speed
Unknown
Apparent Right ascension
Unknown
Apparent Declination
Unknown
Sunlit
N/A
Visualization observer readout
Local Sidereal Time
08:08:03
Azimuth
Unknown
Elevation
Unknown
Doppler factor
Unknown
Orbital elements
Apogee altitude
841.717 km
Perigee altitude
823.244 km
Semi-major axis
7,210.617 km
Eccentricity
0.00128
Inclination
98.6873°
RAAN
289.6921°
Arg. of periapsis
15.359°
True anomaly
12.56701°
Mean anomaly
12.5351°
Eccentric anomaly
12.55105°
Mean motion
3.54474 °/min
Orbital period
101.56 mins
BSTAR
0.000046224

Documentation

Showing up to 5 results
|